Terminal Aerodrome Forecast
Issued by NWS Charleston, WV

Home | Current Version | Previous Version | Text Only | Print | Product List | Glossary On
Versions: 1 2 3 4 5 6 7 8 9 10 11 12 13 14 15 16 17 18 19 20 21 22 23 24 25 26 27 28 29 30 31 32 33 34 35 36 37 38 39 40 41 42 43 44 45 46 47 48 49 50
000
FTUS41 KRLX 250542
TAFCRW
TAF
KCRW 250542Z 2506/2606 21006KT P6SM SCT020 BKN090
     FM251000 24005KT P6SM SCT025
      TEMPO 2510/2512 6SM BR BKN025
     FM251600 26009G15KT P6SM SCT035
     FM260300 VRB03KT P6SM FEW250=

USA.gov is the U.S. government's official web portal to all federal, state and local government web resources and services.